| time (UTC) | temp C | wind direction | speed KPH | gust KPH | rain 1hr cm | rain 24hr cm | rain mn cm | humidity % | barometer mb |
| 20260504050541 | 8 | 192 | 4.8 | 8.0 | 0.00 | 0.00 | 0.00 | 51 | 1014.0 |
| 20260504045541 | 8 | 180 | 3.2 | 8.0 | 0.00 | 0.00 | 0.00 | 51 | 1014.0 |
| 20260504045041 | 8 | 154 | 4.8 | 8.0 | 0.00 | 0.00 | 0.00 | 51 | 1014.1 |
| 20260504044553 | 8 | 186 | 3.2 | 8.0 | 0.00 | 0.00 | 0.00 | 51 | 1014.0 |
| 20260504044041 | 8 | 184 | 1.6 | 6.4 | 0.00 | 0.00 | 0.00 | 52 | 1014.0 |
| 20260504043542 | 8 | 194 | 1.6 | 6.4 | 0.00 | 0.00 | 0.00 | 52 | 1014.0 |
| 20260504043110 | 8 | 205 | 3.2 | 6.4 | 0.00 | 0.00 | 0.00 | 52 | 1013.9 |
| 20260504042541 | 8 | 187 | 3.2 | 6.4 | 0.00 | 0.00 | 0.00 | 52 | 1013.9 |
| 20260504042040 | 8 | 194 | 3.2 | 6.4 | 0.00 | 0.00 | 0.00 | 51 | 1014.0 |
| 20260504041547 | 8 | 189 | 3.2 | 6.4 | 0.00 | 0.00 | 0.00 | 51 | 1014.0 |
| 20260504041040 | 8 | 196 | 1.6 | 6.4 | 0.00 | 0.00 | 0.00 | 51 | 1013.9 |
| 20260504040541 | 8 | 198 | 1.6 | 6.4 | 0.00 | 0.00 | 0.00 | 52 | 1013.8 |
| 20260504040055 | 8 | 208 | 3.2 | 6.4 | 0.00 | 0.00 | 0.00 | 52 | 1013.9 |
| 20260504035542 | 8 | 205 | 3.2 | 9.7 | 0.00 | 0.00 | 0.00 | 52 | 1013.9 |
| 20260504035042 | 8 | 188 | 4.8 | 9.7 | 0.00 | 0.00 | 0.00 | 51 | 1013.9 |
| 20260504034551 | 8 | 186 | 6.4 | 9.7 | 0.00 | 0.00 | 0.00 | 51 | 1013.8 |
| 20260504034041 | 8 | 184 | 4.8 | 8.0 | 0.00 | 0.00 | 0.00 | 51 | 1013.8 |
| 20260504033541 | 8 | 194 | 4.8 | 8.0 | 0.00 | 0.00 | 0.00 | 51 | 1013.8 |
| 20260504033101 | 9 | 184 | 3.2 | 8.0 | 0.00 | 0.00 | 0.00 | 51 | 1013.8 |
| 20260504032541 | 9 | 196 | 4.8 | 8.0 | 0.00 | 0.00 | 0.00 | 51 | 1013.8 |
| 20260504032041 | 9 | 185 | 3.2 | 8.0 | 0.00 | 0.00 | 0.00 | 50 | 1013.8 |
| 20260504031556 | 9 | 191 | 3.2 | 8.0 | 0.00 | 0.00 | 0.00 | 51 | 1013.7 |
| 20260504031041 | 8 | 202 | 1.6 | 4.8 | 0.00 | 0.00 | 0.00 | 51 | 1013.6 |
| 20260504030541 | 8 | 192 | 1.6 | 4.8 | 0.00 | 0.00 | 0.00 | 52 | 1013.7 |
| 20260504025541 | 9 | 196 | 0.0 | 3.2 | 0.00 | 0.00 | 0.00 | 51 | 1013.6 |
| 20260504025042 | 9 | 198 | 0.0 | 4.8 | 0.00 | 0.00 | 0.00 | 52 | 1013.6 |
| 20260504024547 | 9 | 193 | 1.6 | 4.8 | 0.00 | 0.00 | 0.00 | 50 | 1013.6 |
| 20260504024041 | 9 | 196 | 0.0 | 6.4 | 0.00 | 0.00 | 0.00 | 50 | 1013.5 |
| 20260504023541 | 9 | 196 | 1.6 | 6.4 | 0.00 | 0.00 | 0.00 | 50 | 1013.6 |
| 20260504023044 | 9 | 177 | 1.6 | 4.8 | 0.00 | 0.00 | 0.00 | 50 | 1013.6 |
| 20260504022543 | 9 | 173 | 0.0 | 4.8 | 0.00 | 0.00 | 0.00 | 51 | 1013.5 |
| 20260504022042 | 10 | 182 | 0.0 | 4.8 | 0.00 | 0.00 | 0.00 | 50 | 1013.5 |
| 20260504021552 | 10 | 0 | 1.6 | 4.8 | 0.00 | 0.00 | 0.00 | 49 | 1013.4 |
| 20260504021043 | 10 | 0 | 1.6 | 4.8 | 0.00 | 0.00 | 0.00 | 49 | 1013.5 |
| 20260504020542 | 9 | 186 | 1.6 | 4.8 | 0.00 | 0.00 | 0.00 | 51 | 1013.5 |
| 20260504020105 | 9 | 158 | 1.6 | 4.8 | 0.00 | 0.00 | 0.00 | 51 | 1013.5 |
| 20260504015541 | 9 | 150 | 1.6 | 6.4 | 0.00 | 0.00 | 0.00 | 52 | 1013.5 |
| 20260504015041 | 10 | 148 | 1.6 | 6.4 | 0.00 | 0.00 | 0.00 | 52 | 1013.4 |
| 20260504014605 | 10 | 183 | 0.0 | 3.2 | 0.00 | 0.00 | 0.00 | 50 | 1013.4 |
| 20260504014040 | 10 | 0 | 0.0 | 1.6 | 0.00 | 0.00 | 0.00 | 48 | 1013.4 |
| 20260504013545 | 10 | 0 | 0.0 | 1.6 | 0.00 | 0.00 | 0.00 | 48 | 1013.3 |
| 20260504013055 | 10 | 0 | 0.0 | 3.2 | 0.00 | 0.00 | 0.00 | 47 | 1013.4 |
| 20260504012541 | 10 | 0 | 0.0 | 4.8 | 0.00 | 0.00 | 0.00 | 47 | 1013.3 |
| 20260504012041 | 10 | 0 | 0.0 | 4.8 | 0.00 | 0.00 | 0.00 | 47 | 1013.3 |
| 20260504011552 | 10 | 189 | 1.6 | 4.8 | 0.00 | 0.00 | 0.00 | 47 | 1013.2 |
| 20260504011044 | 10 | 198 | 1.6 | 3.2 | 0.00 | 0.00 | 0.00 | 48 | 1013.2 |
| 20260504010541 | 10 | 198 | 1.6 | 3.2 | 0.00 | 0.00 | 0.00 | 48 | 1013.2 |
| 20260504010058 | 11 | 201 | 0.0 | 1.6 | 0.00 | 0.00 | 0.00 | 47 | 1013.3 |
| 20260504005541 | 11 | 0 | 0.0 | 1.6 | 0.00 | 0.00 | 0.00 | 47 | 1013.3 |
| 20260504005041 | 11 | 0 | 0.0 | 1.6 | 0.00 | 0.00 | 0.00 | 46 | 1013.1 |
| 20260504004548 | 11 | 0 | 0.0 | 3.2 | 0.00 | 0.00 | 0.00 | 47 | 1013.1 |
| 20260504004041 | 11 | 0 | 0.0 | 4.8 | 0.00 | 0.00 | 0.00 | 46 | 1013.0 |
| 20260504003541 | 11 | 0 | 1.6 | 4.8 | 0.00 | 0.00 | 0.00 | 45 | 1013.1 |
| 20260504003045 | 11 | 193 | 0.0 | 4.8 | 0.00 | 0.00 | 0.00 | 44 | 1013.0 |
| 20260504002540 | 11 | 0 | 0.0 | 0.0 | 0.00 | 0.00 | 0.00 | 44 | 1012.9 |
| 20260504002041 | 12 | 0 | 0.0 | 3.2 | 0.00 | 0.00 | 0.00 | 43 | 1012.9 |
| 20260504001553 | 12 | 0 | 0.0 | 3.2 | 0.00 | 0.00 | 0.00 | 43 | 1012.8 |
| 20260504001043 | 12 | 0 | 0.0 | 3.2 | 0.00 | 0.00 | 0.00 | 42 | 1012.8 |
| 20260504000541 | 12 | 290 | 0.0 | 3.2 | 0.00 | 0.00 | 0.00 | 42 | 1012.7 |
| 20260504000046 | 12 | 0 | 0.0 | 1.6 | 0.00 | 0.00 | 0.00 | 41 | 1012.7 |
| 20260503235541 | 12 | 0 | 0.0 | 3.2 | 0.00 | 0.00 | 0.00 | 41 | 1012.6 |
| 20260503235042 | 13 | 0 | 0.0 | 3.2 | 0.00 | 0.00 | 0.00 | 40 | 1012.6 |
| 20260503234550 | 13 | 290 | 1.6 | 8.0 | 0.00 | 0.00 | 0.00 | 40 | 1012.5 |
| 20260503234042 | 13 | 0 | 1.6 | 8.0 | 0.00 | 0.00 | 0.00 | 40 | 1012.4 |
| 20260503233542 | 13 | 286 | 3.2 | 14.5 | 0.00 | 0.00 | 0.00 | 39 | 1012.4 |
| 20260503233047 | 13 | 288 | 3.2 | 14.5 | 0.00 | 0.00 | 0.00 | 39 | 1012.4 |
| 20260503232543 | 13 | 275 | 4.8 | 12.9 | 0.00 | 0.00 | 0.00 | 38 | 1012.3 |
| 20260503232041 | 13 | 295 | 1.6 | 4.8 | 0.00 | 0.00 | 0.00 | 38 | 1012.2 |
| 20260503231552 | 13 | 283 | 1.6 | 4.8 | 0.00 | 0.00 | 0.00 | 38 | 1012.2 |
| 20260503231042 | 13 | 287 | 1.6 | 4.8 | 0.00 | 0.00 | 0.00 | 37 | 1012.2 |
| 20260503230541 | 13 | 275 | 1.6 | 14.5 | 0.00 | 0.00 | 0.00 | 37 | 1012.2 |
| 20260503230109 | 13 | 239 | 1.6 | 14.5 | 0.00 | 0.00 | 0.00 | 38 | 1012.3 |
| 20260503225542 | 13 | 254 | 4.8 | 12.9 | 0.00 | 0.00 | 0.00 | 39 | 1012.3 |
| 20260503225041 | 14 | 281 | 3.2 | 17.7 | 0.00 | 0.00 | 0.00 | 38 | 1012.3 |
| 20260503224550 | 14 | 274 | 3.2 | 17.7 | 0.00 | 0.00 | 0.00 | 38 | 1012.4 |
| 20260503224043 | 14 | 288 | 6.4 | 17.7 | 0.00 | 0.00 | 0.00 | 37 | 1012.5 |
| 20260503223541 | 14 | 278 | 4.8 | 17.7 | 0.00 | 0.00 | 0.00 | 38 | 1012.4 |
| 20260503223102 | 14 | 312 | 9.7 | 19.3 | 0.00 | 0.00 | 0.00 | 37 | 1012.4 |
| 20260503222543 | 14 | 308 | 9.7 | 24.1 | 0.00 | 0.00 | 0.00 | 35 | 1012.4 |
| 20260503222040 | 14 | 316 | 8.0 | 24.1 | 0.00 | 0.00 | 0.00 | 37 | 1012.4 |
| 20260503221552 | 14 | 275 | 8.0 | 16.1 | 0.00 | 0.00 | 0.00 | 35 | 1012.3 |
| 20260503221040 | 14 | 337 | 4.8 | 20.9 | 0.00 | 0.00 | 0.00 | 37 | 1012.4 |
| 20260503220541 | 14 | 277 | 6.4 | 27.4 | 0.00 | 0.00 | 0.00 | 37 | 1012.4 |
| 20260503220055 | 14 | 304 | 4.8 | 27.4 | 0.00 | 0.00 | 0.00 | 36 | 1012.6 |
| 20260503215540 | 14 | 304 | 9.7 | 32.2 | 0.00 | 0.00 | 0.00 | 35 | 1012.4 |
| 20260503215041 | 14 | 269 | 11.3 | 32.2 | 0.00 | 0.00 | 0.00 | 35 | 1012.4 |
| 20260503214556 | 14 | 316 | 8.0 | 20.9 | 0.00 | 0.00 | 0.00 | 37 | 1012.6 |
| 20260503214041 | 14 | 213 | 3.2 | 14.5 | 0.00 | 0.00 | 0.00 | 37 | 1012.4 |
| 20260503213542 | 14 | 280 | 3.2 | 22.5 | 0.00 | 0.00 | 0.00 | 37 | 1012.4 |
| 20260503213051 | 14 | 275 | 3.2 | 22.5 | 0.00 | 0.00 | 0.00 | 39 | 1012.4 |
| 20260503212541 | 14 | 329 | 6.4 | 19.3 | 0.00 | 0.00 | 0.00 | 36 | 1012.5 |
| 20260503212040 | 14 | 300 | 9.7 | 19.3 | 0.00 | 0.00 | 0.00 | 37 | 1012.5 |
| 20260503211552 | 14 | 279 | 11.3 | 19.3 | 0.00 | 0.00 | 0.00 | 38 | 1012.4 |
| 20260503211040 | 14 | 321 | 4.8 | 24.1 | 0.00 | 0.00 | 0.00 | 36 | 1012.3 |
| 20260503210541 | 13 | 336 | 9.7 | 24.1 | 0.00 | 0.00 | 0.00 | 36 | 1012.3 |
| 20260503210051 | 13 | 305 | 8.0 | 20.9 | 0.00 | 0.00 | 0.00 | 35 | 1012.3 |
| 20260503205541 | 13 | 283 | 3.2 | 27.4 | 0.00 | 0.00 | 0.00 | 37 | 1012.2 |
| 20260503205041 | 13 | 284 | 11.3 | 27.4 | 0.00 | 0.00 | 0.00 | 34 | 1012.4 |
| 20260503204551 | 14 | 286 | 14.5 | 25.7 | 0.00 | 0.00 | 0.00 | 35 | 1012.3 |
| 20260503204041 | 14 | 304 | 11.3 | 25.7 | 0.00 | 0.00 | 0.00 | 34 | 1012.3 |
| 20260503203540 | 14 | 298 | 9.7 | 20.9 | 0.00 | 0.00 | 0.00 | 35 | 1012.4 |
| 20260503203049 | 13 | 323 | 9.7 | 20.9 | 0.00 | 0.00 | 0.00 | 34 | 1012.4 |
| 20260503202541 | 13 | 290 | 4.8 | 17.7 | 0.00 | 0.00 | 0.00 | 37 | 1012.4 |
| 20260503202041 | 13 | 284 | 3.2 | 24.1 | 0.00 | 0.00 | 0.00 | 35 | 1012.4 |
| 20260503201554 | 14 | 302 | 12.9 | 24.1 | 0.00 | 0.00 | 0.00 | 34 | 1012.4 |
| 20260503201041 | 14 | 311 | 4.8 | 24.1 | 0.00 | 0.00 | 0.00 | 34 | 1012.4 |
| 20260503200540 | 14 | 256 | 3.2 | 24.1 | 0.00 | 0.00 | 0.00 | 36 | 1012.4 |
| 20260503200053 | 13 | 269 | 11.3 | 29.0 | 0.00 | 0.00 | 0.00 | 34 | 1012.7 |
| 20260503195540 | 13 | 320 | 14.5 | 29.0 | 0.00 | 0.00 | 0.00 | 34 | 1012.5 |
| 20260503195041 | 13 | 309 | 16.1 | 25.7 | 0.00 | 0.00 | 0.00 | 34 | 1012.8 |
| 20260503194616 | 13 | 313 | 11.3 | 25.7 | 0.00 | 0.00 | 0.00 | 34 | 1012.8 |
| 20260503194044 | 13 | 312 | 17.7 | 25.7 | 0.00 | 0.00 | 0.00 | 34 | 1012.7 |
| 20260503193542 | 13 | 289 | 9.7 | 29.0 | 0.00 | 0.00 | 0.00 | 34 | 1012.9 |
| 20260503193053 | 13 | 310 | 12.9 | 29.0 | 0.00 | 0.00 | 0.00 | 34 | 1013.0 |
| 20260503192541 | 13 | 250 | 11.3 | 24.1 | 0.00 | 0.00 | 0.00 | 34 | 1012.9 |
| 20260503192041 | 13 | 317 | 12.9 | 22.5 | 0.00 | 0.00 | 0.00 | 36 | 1013.1 |
| 20260503191554 | 13 | 270 | 1.6 | 22.5 | 0.00 | 0.00 | 0.00 | 37 | 1013.0 |
| 20260503191041 | 13 | 268 | 12.9 | 25.7 | 0.00 | 0.00 | 0.00 | 35 | 1013.2 |
| 20260503190541 | 13 | 279 | 11.3 | 25.7 | 0.00 | 0.00 | 0.00 | 35 | 1013.2 |
| 20260503190048 | 13 | 302 | 8.0 | 20.9 | 0.00 | 0.00 | 0.00 | 37 | 1013.4 |
| 20260503185541 | 12 | 267 | 4.8 | 22.5 | 0.00 | 0.00 | 0.00 | 37 | 1013.3 |
| 20260503185041 | 13 | 315 | 9.7 | 22.5 | 0.00 | 0.00 | 0.00 | 36 | 1013.4 |
| 20260503184547 | 12 | 316 | 11.3 | 22.5 | 0.00 | 0.00 | 0.00 | 37 | 1013.6 |
| 20260503184040 | 12 | 287 | 11.3 | 22.5 | 0.00 | 0.00 | 0.00 | 37 | 1013.6 |
| 20260503183541 | 12 | 293 | 9.7 | 24.1 | 0.00 | 0.00 | 0.00 | 35 | 1013.8 |
| 20260503183056 | 12 | 311 | 8.0 | 24.1 | 0.00 | 0.00 | 0.00 | 37 | 1013.8 |
| 20260503182540 | 12 | 282 | 8.0 | 25.7 | 0.00 | 0.00 | 0.00 | 39 | 1013.8 |
| 20260503182042 | 12 | 326 | 12.9 | 25.7 | 0.00 | 0.00 | 0.00 | 38 | 1013.9 |
| 20260503181559 | 12 | 311 | 11.3 | 22.5 | 0.00 | 0.00 | 0.00 | 40 | 1013.7 |
| 20260503181044 | 12 | 269 | 11.3 | 29.0 | 0.00 | 0.00 | 0.00 | 41 | 1013.8 |
| 20260503180541 | 11 | 307 | 11.3 | 29.0 | 0.00 | 0.00 | 0.00 | 39 | 1013.9 |
| 20260503180055 | 12 | 248 | 3.2 | 14.5 | 0.00 | 0.00 | 0.00 | 44 | 1013.8 |
| 20260503175540 | 12 | 265 | 6.4 | 32.2 | 0.00 | 0.00 | 0.00 | 41 | 1013.9 |
| 20260503175040 | 11 | 331 | 9.7 | 32.2 | 0.00 | 0.00 | 0.00 | 43 | 1014.0 |
| 20260503174556 | 11 | 275 | 4.8 | 20.9 | 0.00 | 0.00 | 0.00 | 44 | 1013.9 |
| 20260503174040 | 11 | 283 | 8.0 | 22.5 | 0.00 | 0.00 | 0.00 | 40 | 1013.9 |
| 20260503173540 | 11 | 261 | 8.0 | 22.5 | 0.00 | 0.00 | 0.00 | 41 | 1014.0 |
| 20260503173053 | 11 | 277 | 6.4 | 25.7 | 0.00 | 0.00 | 0.00 | 41 | 1014.0 |
| 20260503172541 | 11 | 321 | 16.1 | 27.4 | 0.00 | 0.00 | 0.00 | 39 | 1014.1 |
| 20260503172041 | 11 | 326 | 8.0 | 27.4 | 0.00 | 0.00 | 0.00 | 40 | 1014.1 |
| 20260503171552 | 11 | 287 | 14.5 | 27.4 | 0.00 | 0.00 | 0.00 | 40 | 1014.1 |
| 20260503171041 | 10 | 269 | 6.4 | 25.7 | 0.00 | 0.00 | 0.00 | 40 | 1014.2 |
| 20260503170541 | 10 | 257 | 14.5 | 25.7 | 0.00 | 0.00 | 0.00 | 40 | 1014.2 |
| 20260503150543 | 8 | 291 | 11.3 | 24.1 | 0.00 | 0.00 | 0.00 | 45 | 1015.0 |
| 20260503131041 | 6 | 5 | 16.1 | 25.7 | 0.00 | 0.00 | 0.00 | 52 | 1015.1 |
| 20260503130541 | 6 | 309 | 14.5 | 29.0 | 0.00 | 0.00 | 0.00 | 55 | 1015.1 |
| 20260503110540 | 2 | 315 | 1.6 | 8.0 | 0.00 | 0.00 | 0.00 | 72 | 1014.4 |
| 20260503081550 | 3 | 285 | 3.2 | 11.3 | 0.00 | 0.00 | 0.00 | 70 | 1012.5 |
| 20260503081046 | 3 | 335 | 3.2 | 11.3 | 0.00 | 0.00 | 0.00 | 70 | 1012.6 |
| 20260503080544 | 3 | 292 | 4.8 | 12.9 | 0.00 | 0.00 | 0.00 | 70 | 1012.5 |
| 20260503072542 | 3 | 289 | 6.4 | 16.1 | 0.00 | 0.00 | 0.00 | 68 | 1012.2 |
| 20260503072044 | 3 | 313 | 6.4 | 16.1 | 0.00 | 0.00 | 0.00 | 69 | 1012.1 |
| 20260503071552 | 3 | 296 | 3.2 | 9.7 | 0.00 | 0.00 | 0.00 | 71 | 1012.1 |
| 20260503071043 | 3 | 294 | 1.6 | 4.8 | 0.00 | 0.00 | 0.00 | 71 | 1012.1 |